TITAN 3C TRANSTAGE DEB, 27721

Orbit data source: Space-Track

TITAN 3C TRANSTAGE DEB, 27721 is space debris in LEO originally from a launch on Fri, 15 Oct 1965 UTC launched from the Air Force Eastern Test Range (AFETR). Debris objects in space refer to the collection of defunct objects orbiting the Earth. Examples of debris include non-operational satellites, rocket bodies, and fragments generated from explosions, collisions, or faulty payload assembly.

Loading next visibility...
Identifier
27721, 1965-082UT
Orbit
LEO
Country
Flag of USUS
Related business
Manufacturer
Unknown
Mission
Spacecraft
Bus & Motor
Unknown
Mass
Unknown
Launch date (UTC)
1965-10-15 (61 years ago)
Launch vehicle
Unknown
Launch site
Air Force Eastern Test Range (AFETR)
Object type
Payload
Rocket body
Debris
Shape & HBR
Unknown shape, 0.1 m
Radar Cross Section
Small (<0.1 m²)

Expand to show TLE details & history
Last TLE update: 1 day ago

TLE from 1 day ago
0 TITAN 3C TRANSTAGE DEB
1 27721U 65082UT  26177.60941166  .00001297  00000-0  30607-3 0  9994
2 27721  31.6371 290.7159 0112204 299.9399  59.0132 14.47914848649363
Epoch: 2026-06-26T14:37Z
TLE epoch observation values (Epoch: 2026-06-26T14:37:33.167Z)
Latitude
-0°
Longitude
156.59224°
Altitude
690.676 km
Speed
7.535 km/s
True Right ascension
19h 22m 51s
True Declination
0° 00' 00"
Sunlit
Object was in full shadow at epoch
Visualization orbit readout
Latitude
Unknown
Longitude
Unknown
Altitude
Unknown
Speed
Unknown
Apparent Right ascension
Unknown
Apparent Declination
Unknown
Sunlit
N/A
Visualization observer readout
Local Sidereal Time
03:12:51
Azimuth
Unknown
Elevation
Unknown
Doppler factor
Unknown
Orbital elements
Apogee altitude
815.936 km
Perigee altitude
656.286 km
Semi-major axis
7,114.248 km
Eccentricity
0.01122
Inclination
31.6371°
RAAN
290.7159°
Arg. of periapsis
299.9399°
True anomaly
60.12341°
Mean anomaly
59.0132°
Eccentric anomaly
59.56751°
Mean motion
3.61701 °/min
Orbital period
99.53 mins
BSTAR
0.00030607

Documentation

Showing up to 5 results
|